[[{"header":{"parameterUnit":"m.s-1","parameterCategory":1,"la1":30.2991,"la2":30.254,"lo1":-89.0895,"lo2":-89.0444,"dy":0.0017,"dx":0.0017,"nx":28,"ny":28,"refTime":"2024-02-06T03:00:00:Z","depth":0,"parameterNumber":2,"parameterNumberName":"U-component_of_WINDS"},"data":[0,0,0,0,0,0,0,0,0,0,0,0,0,0,0,0,0,0,0,0,0,0,0,0,0,0,0,0,0,0,0,0,0,0,0,0,0,0,0,0,0,0,0,0,0,0,0,0,0,0,0,0,0,0,0,0,0,0,-3.7714,-3.7715,0,-3.7842,-3.7844,-3.7845,-3.7818,-3.7816,-3.7814,-3.7811,-3.7943,-3.7948,-3.7954,0,0,0,0,0,0,0,0,0,0,0,0,0,-3.7445,-3.745,-3.7713,-3.7715,-3.7717,-3.7842,-3.7844,-3.7846,-3.7819,-3.7816,-3.7813,-3.781,-3.7941,-3.7948,-3.7955,0,0,0,0,0,0,0,0,0,0,0,0,0,-3.7567,-3.7452,-3.7713,-3.7718,-3.772,-3.7842,-3.7844,-3.7846,-3.7819,-3.7816,-3.7812,-3.7809,-3.7939,-3.7947,-3.7955,-3.808,0,0,-3.7982,-3.7985,0,0,0,0,0,0,0,0,-3.756,-3.7576,-3.7716,-3.7718,-3.772,-3.7811,-3.7797,-3.7924,-3.782,-3.7782,-3.7811,-3.7807,-3.7902,-3.7913,-3.7945,-3.8086,-3.8091,-3.7982,-3.7988,-3.7991,-3.7994,0,0,0,0,0,0,0,-3.7551,-3.7571,-3.7764,-3.7718,-3.7721,-3.7715,-3.7728,-3.7821,-3.786,-3.7785,-3.7783,-3.7799,-3.7902,-3.7937,-3.7948,-3.8093,-3.7982,-3.799,-3.7995,-3.7998,-3.8343,-3.8347,0,0,0,0,0,0,-3.7541,-3.7564,-3.776,-3.7768,-3.763,-3.7722,-3.7737,-3.7785,-3.7859,-3.7867,-3.7802,-3.7797,-3.7924,-3.7938,-3.7952,-3.8102,-3.7991,-3.7999,-3.8004,-3.8339,-3.8344,-3.8348,0,0,0,0,0,0,-3.7535,-3.7559,-3.7755,-3.7666,-3.769,-3.7731,-3.7785,-3.779,-3.7824,-3.7872,-3.7879,-3.783,-3.7922,-3.794,-3.8048,-3.8106,-3.8003,-3.8011,-3.8335,-3.8341,-3.8346,-3.8402,0,0,0,0,0,0,-3.7528,-3.7557,-3.7604,-3.7667,-3.7695,-3.7849,-3.7789,-3.7795,-3.7839,-3.7834,-3.79,-3.7907,-3.792,-3.8036,-3.8057,-3.8116,-3.8018,-3.8329,-3.8337,-3.8344,-3.8395,-3.841,-3.8422,0,0,0,0,0,-3.7518,-3.7614,-3.7606,-3.763,-3.7755,-3.7852,-3.7868,-3.7881,-3.7844,-3.7892,-3.7923,-3.7905,-3.8097,-3.8047,-3.8071,-3.8133,-3.8326,-3.8335,-3.8344,-3.839,-3.8407,-3.8421,0,0,0,0,0,0,-3.7556,-3.7623,-3.7614,-3.7734,-3.7788,-3.7847,-3.7907,-3.7899,-3.7964,-3.7956,-3.797,-3.7985,-3.8095,-3.8126,-3.8068,-3.8258,-3.8206,-3.822,-3.8233,-3.825,-3.8263,-3.8251,-3.8025,0,0,0,0,0,-3.7579,-3.7652,-3.7706,-3.7807,-3.7834,-3.7867,-3.7909,-3.7915,-3.7971,-3.7993,-3.8032,-3.8087,-3.816,-3.8207,-3.8277,-3.8401,-3.8415,-3.8456,-3.8469,-3.848,-3.8491,-3.8559,-3.8578,-3.8378,-3.8378,-3.8378,0,0,-3.7625,-3.7671,-3.7716,-3.7815,-3.7857,-3.7933,-3.7886,-3.7967,-3.8023,-3.8006,-3.8109,-3.814,-3.8203,-3.832,-3.8373,-3.8348,-3.855,-3.8491,-3.8499,-3.8505,-3.857,-3.8589,-3.8606,-3.8384,-3.8383,-3.8382,0,0,-3.7748,-3.7791,-3.7879,-3.7922,-3.7987,-3.8009,-3.803,-3.8092,-3.8112,-3.8217,-3.8205,-3.8273,-3.8398,-3.8442,-3.8482,-3.8625,-3.8611,-3.8648,-3.8715,-3.8781,-3.8796,-3.881,-3.886,-3.8878,-3.8659,-3.866,-3.866,0,-3.7798,-3.7911,-3.7925,-3.8008,-3.8052,-3.8041,-3.813,-3.8172,-3.8257,-3.8287,-3.8259,-3.8416,-3.8458,-3.8585,-3.862,-3.8653,-3.8677,-3.8638,-3.8793,-3.8807,-3.8821,-3.8868,-3.8887,-3.8663,-3.8663,-3.8663,-3.8662,0,-3.7968,-3.8047,-3.811,-3.8192,-3.8244,-3.8329,-3.8357,-3.8408,-3.841,-3.8435,-3.8542,-3.8592,-3.8672,-3.8703,-3.8706,-3.8831,-3.8814,-3.879,-3.8737,-3.8843,-3.8888,-3.8906,-3.8669,-3.8667,-3.8666,-3.8665,0,0,-3.8114,-3.8205,-3.8228,-3.8265,-3.8337,-3.8398,-3.8485,-3.8563,-3.8606,-3.8666,-3.8737,-3.8845,-3.8824,-3.8868,-3.8877,-3.8936,-3.9045,-3.8904,-3.8906,-3.8927,-3.9184,-3.92,-3.9221,-3.9038,-3.9041,-3.9044,-3.9178,0,-3.8242,-3.8393,-3.841,-3.8544,-3.8617,-3.861,-3.8685,-3.8738,-3.8764,-3.883,-3.886,-3.8935,-3.8902,-3.8928,-3.8986,-3.9019,-3.9096,-3.901,-3.9103,-3.9106,-3.9085,-3.9244,-3.9261,-3.9385,-3.9196,-3.9199,-3.9201,0,-3.841,-3.8475,-3.8617,-3.868,-3.8711,-3.8778,-3.8852,-3.8915,-3.8976,-3.8991,-3.9042,-3.9044,-3.9133,-3.9081,-3.9203,-3.9145,-3.9185,-3.9207,-3.9212,-3.9218,-3.9158,-3.9253,-3.9425,-3.9442,-3.9229,-3.9227,-3.9225,0,-3.85,-3.8623,-3.8724,-3.8757,-3.8833,-3.8881,-3.8915,-3.8972,-3.9018,-3.9083,-3.9113,-3.9188,-3.9228,-3.9287,-3.9308,-3.9268,-3.943,-3.9379,-3.9444,-3.9444,-3.9476,-3.9473,-3.9654,-3.9507,-3.9506,-3.9506,-3.9506,0,-3.8639,-3.8726,-3.8766,-3.8827,-3.8925,-3.8944,-3.904,-3.9073,-3.9124,-3.9192,-3.9191,-3.9255,-3.9282,-3.935,-3.9368,-3.9467,-3.9486,-3.95,-3.9503,-3.9499,-3.9496,-3.9522,-3.9513,-3.9511,-3.951,-3.9509,-3.9508,0,-3.8754,-3.8785,-3.8894,-3.8958,-3.8977,-3.9045,-3.9101,-3.9161,-3.9188,-3.9274,-3.9296,-3.9338,-3.9419,-3.9447,-3.9545,-3.9558,-3.9672,-3.9669,-3.9651,-3.9651,-3.9713,-3.9706,-3.9915,-3.9943,-3.978,-3.9781,-3.9782,0,-3.8839,-3.8906,-3.8978,-3.9024,-3.906,-3.9133,-3.9181,-3.9204,-3.9254,-3.9329,-3.938,-3.946,-3.9525,-3.9655,-3.9695,-3.977,-3.9768,-3.9836,-3.9779,-3.9772,-3.9766,-3.9761,-3.9767,-3.9845,-3.9847,-3.9848,-3.9849,0,-3.8986,-3.8999,-3.9067,-3.9142,-3.9199,-3.9259,-3.9317,-3.9355,-3.9386,-3.9443,-3.9525,-3.9576,-3.9677,-3.9757,-3.9835,-3.987,-3.9865,-3.9868,-3.9886,-3.988,-3.9866,-3.9873,-3.9677,-3.9862,-3.9861,-3.986,-3.9859,-3.9859,-3.9087,-3.9146,-3.9206,-3.9283,-3.933,-3.9385,-3.9444,-3.9479,-3.9549,-3.9632,-3.9643,-3.9731,-3.9792,-3.9896,-3.9935,-4.0005,-3.9987,-4.0014,-4.002,-4.0026,-4.003,-3.9858,-4.002,-4.002,-4.002,-4.0019,-4.0019,0,-3.9232,-3.9271,-3.9342,-3.9424,-3.9485,-3.9477,-3.9541,-3.9592,-3.967,-3.9727,-3.9792,-3.9888,-3.9966,-4.0013,-4.0091,-4.0138,-4.0138,-4.0158,-4.0153,-4.0161,-4.0043,-4.0018,-4.0157,-4.0157,-4.0157,-4.0157,-4.0157,-4.0157,-3.9315,-3.9414,-3.9434,-3.9556,-3.9595,-3.9682,-3.9719,-3.977,-3.9815,-3.9922,-3.9987,-4.0018,-4.0071,-4.0154,-4.0225,-4.0237,-4.0265,-4.0286,-4.0296,-4.0184,-4.0169,-4.0156,-4.0132,-4.0293,-4.0293,-4.0408,-4.0409,-4.041]},{"header":{"parameterUnit":"m.s-1","parameterCategory":1,"la1":30.2991,"la2":30.254,"lo1":-89.0895,"lo2":-89.0444,"dy":0.0017,"dx":0.0017,"nx":28,"ny":28,"refTime":"2024-02-06T03:00:00:Z","depth":0,"parameterNumber":3,"parameterNumberName":"V-component_of_WINDS"},"data":[0,0,0,0,0,0,0,0,0,0,0,0,0,0,0,0,0,0,0,0,0,0,0,0,0,0,0,0,0,0,0,0,0,0,0,0,0,0,0,0,0,0,0,0,0,0,0,0,0,0,0,0,0,0,0,0,0,0,2.365,2.3652,0,2.3782,2.3783,2.3785,2.3812,2.3811,2.381,2.3809,2.3937,2.3942,2.3946,0,0,0,0,0,0,0,0,0,0,0,0,0,2.3419,2.3423,2.365,2.3652,2.3654,2.3781,2.3783,2.3785,2.3812,2.381,2.3809,2.3808,2.3936,2.3941,2.3946,0,0,0,0,0,0,0,0,0,0,0,0,0,2.3531,2.3424,2.365,2.3682,2.3687,2.3781,2.3783,2.3785,2.3812,2.381,2.3809,2.3808,2.3934,2.394,2.3947,2.4016,0,0,2.3967,2.397,0,0,0,0,0,0,0,0,2.3525,2.354,2.3676,2.368,2.3685,2.3779,2.3749,2.3863,2.3812,2.3764,2.3809,2.3807,2.3885,2.3896,2.3923,2.4022,2.4028,2.3967,2.3971,2.3974,2.3976,0,0,0,0,0,0,0,2.3517,2.3534,2.3702,2.3678,2.3684,2.3689,2.3704,2.377,2.3831,2.3768,2.3771,2.3786,2.3888,2.3917,2.3927,2.403,2.3967,2.3973,2.3977,2.398,2.4194,2.4196,0,0,0,0,0,0,2.3504,2.3528,2.3698,2.3706,2.36,2.3694,2.3711,2.375,2.3831,2.3842,2.3787,2.3787,2.3907,2.3919,2.3931,2.4019,2.3974,2.398,2.3984,2.4192,2.4194,2.4196,0,0,0,0,0,0,2.3499,2.3519,2.3693,2.3618,2.364,2.37,2.3744,2.3753,2.3783,2.3845,2.3855,2.3807,2.3906,2.3922,2.3996,2.4024,2.3983,2.3989,2.419,2.4193,2.4195,2.4194,0,0,0,0,0,0,2.3492,2.3517,2.3545,2.3618,2.3644,2.3756,2.3746,2.3757,2.3795,2.3796,2.3866,2.3876,2.3906,2.3986,2.4002,2.4032,2.3994,2.4188,2.4191,2.4194,2.4192,2.4196,2.42,0,0,0,0,0,2.3484,2.3538,2.3546,2.3567,2.368,2.3758,2.3772,2.3808,2.3797,2.3825,2.3865,2.3874,2.4018,2.3993,2.4012,2.4044,2.4186,2.419,2.4194,2.419,2.4196,2.42,0,0,0,0,0,0,2.3464,2.3548,2.3558,2.3637,2.3691,2.3762,2.3798,2.3812,2.3868,2.3866,2.3905,2.3921,2.3993,2.4026,2.3996,2.4116,2.4101,2.4109,2.4092,2.4098,2.4102,2.4092,2.3999,0,0,0,0,0,2.3469,2.3526,2.3596,2.3659,2.3686,2.3738,2.3772,2.3796,2.3851,2.3873,2.3918,2.3971,2.4028,2.4065,2.4121,2.4197,2.4213,2.4228,2.4233,2.4236,2.4242,2.4286,2.4293,2.4209,2.4209,2.4209,0,0,2.3479,2.3533,2.3566,2.3657,2.3701,2.3758,2.3756,2.3816,2.3859,2.3882,2.3955,2.399,2.4051,2.4127,2.4162,2.4156,2.4269,2.4241,2.4243,2.4247,2.4291,2.4298,2.4305,2.4212,2.4212,2.4211,0,0,2.3528,2.3574,2.3633,2.3677,2.3745,2.3779,2.3793,2.3864,2.3889,2.3963,2.3982,2.4032,2.413,2.4173,2.4208,2.4276,2.4286,2.4293,2.4314,2.4356,2.4363,2.4369,2.4393,2.4402,2.4299,2.4299,2.4299,0,2.3532,2.3621,2.366,2.3721,2.3761,2.3786,2.3846,2.3886,2.3967,2.3994,2.3987,2.4111,2.4154,2.4241,2.4258,2.4285,2.4301,2.4284,2.4359,2.4366,2.4372,2.4395,2.4405,2.4299,2.4299,2.4299,2.4299,0,2.3623,2.3684,2.3723,2.3804,2.3848,2.3907,2.3955,2.3994,2.4014,2.4049,2.4125,2.4177,2.4245,2.4268,2.4286,2.4357,2.4352,2.4352,2.4337,2.438,2.4403,2.4412,2.43,2.43,2.4299,2.4299,0,0,2.3661,2.3765,2.3778,2.3816,2.3893,2.3941,2.4001,2.407,2.4103,2.4159,2.421,2.4294,2.4295,2.4334,2.4358,2.4395,2.4446,2.4391,2.4393,2.4399,2.4528,2.4528,2.4538,2.4454,2.4456,2.4457,2.4523,0,2.3719,2.383,2.3868,2.396,2.4017,2.4044,2.4096,2.4149,2.4184,2.4236,2.4274,2.4333,2.4329,2.4354,2.4392,2.4432,2.4472,2.4428,2.4501,2.4503,2.4485,2.455,2.4549,2.4609,2.4532,2.4534,2.4535,0,2.3801,2.3861,2.3959,2.4031,2.4056,2.4103,2.417,2.4221,2.4281,2.4303,2.4349,2.4371,2.4434,2.4417,2.4505,2.4474,2.4506,2.4531,2.4534,2.4542,2.4521,2.4559,2.4629,2.4638,2.455,2.4548,2.4547,0,2.382,2.3924,2.3997,2.4028,2.4114,2.4146,2.4183,2.4242,2.4282,2.4339,2.4365,2.4429,2.4464,2.4512,2.455,2.4534,2.4635,2.4621,2.4655,2.4654,2.4674,2.4672,2.475,2.4695,2.4695,2.4695,2.4694,0,2.388,2.3939,2.4007,2.4051,2.4118,2.4161,2.4226,2.4264,2.4316,2.4368,2.4394,2.4441,2.4489,2.4543,2.4573,2.4641,2.4656,2.4676,2.4683,2.4673,2.4671,2.4695,2.4691,2.4697,2.4697,2.4696,2.4696,0,2.3912,2.3959,2.404,2.4116,2.4136,2.4182,2.4246,2.429,2.4326,2.4392,2.4409,2.4466,2.4531,2.4574,2.4656,2.4676,2.4751,2.4757,2.4731,2.4734,2.4766,2.4762,2.4862,2.4877,2.4812,2.4812,2.4813,0,2.3947,2.3994,2.4075,2.4113,2.4151,2.421,2.4252,2.4296,2.4338,2.4411,2.4446,2.4513,2.4569,2.4671,2.4718,2.4781,2.4789,2.482,2.4798,2.4788,2.479,2.4786,2.4791,2.4822,2.4823,2.4823,2.4824,0,2.4005,2.4027,2.4087,2.4156,2.4205,2.426,2.4315,2.4344,2.4398,2.4443,2.4511,2.4555,2.464,2.4706,2.4774,2.481,2.4826,2.483,2.4841,2.4832,2.4815,2.4825,2.474,2.4827,2.4827,2.4827,2.4827,2.4826,2.404,2.4083,2.4148,2.4214,2.4261,2.4313,2.4358,2.4402,2.446,2.4534,2.4556,2.4627,2.4687,2.478,2.4818,2.4873,2.487,2.4886,2.489,2.4893,2.4893,2.4807,2.4885,2.4885,2.4885,2.4885,2.4885,0,2.41,2.4144,2.4204,2.4282,2.4334,2.4347,2.4409,2.4451,2.4514,2.4569,2.4625,2.4703,2.4768,2.4822,2.4888,2.4922,2.4931,2.4938,2.4935,2.4944,2.4892,2.4876,2.493,2.493,2.493,2.493,2.493,2.493,2.4137,2.4212,2.4241,2.4339,2.4382,2.4453,2.4488,2.4535,2.458,2.4667,2.4722,2.4758,2.4812,2.4884,2.4943,2.4957,2.498,2.4986,2.5001,2.4952,2.4947,2.4942,2.4927,2.4991,2.4991,2.5048,2.5049,2.5049]}]]